Regional Weather Roundup
Issued by NWS Sioux Falls, SD

Home | Current Version | Previous Version | Graphics & Text | Print | Product List | Glossary Off
Versions: 1 2 3 4 5 6 7 8 9 10 11 12 13 14 15 16 17 18 19 20 21 22 23 24 25 26 27 28 29 30 31 32 33 34 35 36 37 38 39 40 41 42 43 44 45 46 47 48 49 50

000
ASUS43 KFSD 210210
RWRFSD

WEATHER ROUNDUP FOR SE SOUTH DAKOTA/SW MINNESOTA/NW IOWA
NATIONAL WEATHER SERVICE SIOUX FALLS SD
800 PM CST FRI JAN 20 2017

NOTE: "FAIR" INDICATES FEW OR NO CLOUDS BELOW 12,000 FEET WITH NO
SIGNIFICANT WEATHER AND OR OBSTRUCTIONS TO VISIBILITY.


SDZ038>040-050-052>070-210300-
SOUTHEAST SOUTH DAKOTA

CITY           SKY/WX    TMP DP  RH WIND       PRES   REMARKS
BROOKINGS      CLOUDY    36  36 100 SE16      29.41F FOG
CHAMBERLAIN    CLEAR     30  29  96 CALM      29.35S
HURON          CLOUDY    38  37  97 S12       29.36S
MADISON        CLOUDY    36  36 100 SE14G21     N/A
MITCHELL       CLOUDY    39  38  96 SE16      29.38S
SIOUX FALLS    CLOUDY    39  39 100 SE10      29.43F FOG
WINNER           N/A     32  27  81 SW7       29.34S WCI  26
YANKTON        CLOUDY    39  37  93 E6        29.41S VSB 3/4
$$

MNZ071-072-080-081-089-090-097-098-210300-
SOUTHWEST MINNESOTA

CITY           SKY/WX    TMP DP  RH WIND       PRES   REMARKS
FAIRMONT       FOG       34  34 100 SE7       29.52F VSB 1/2 WCI  28
JACKSON        FOG       32  32 100 SE6       29.50F VSB 1/2 WCI  26
LUVERNE        CLOUDY    36  36 100 SE7       29.46F FOG
MARSHALL       CLOUDY    36  35  96 SE9       29.48F FOG
MONTEVIDEO     FOG       34  34 100 S10       29.50F VSB 3/4 WCI  26
PIPESTONE      DRZL/FOG  37  37 100 S9        29.44S VSB 1/2
REDWOOD FALLS  CLOUDY    35  33  92 SE12      29.51S FOG     WCI  27
TRACY          CLOUDY    37  37 100 SE8       29.48F FOG
WINDOM         DRZL/FOG  36  36 100 E7        29.50F VSB 3/4
WORTHINGTON    FOG       35  35 100 SE8       29.47F VSB 1/2 WCI  29
$$

IAZ001>003-012>014-020>022-031-032-NEZ013-014-SDZ071-210300-
NORTHWEST IOWA

CITY           SKY/WX    TMP DP  RH WIND       PRES   REMARKS
CHEROKEE       CLOUDY    37  37 100 SE3       29.47F FOG
DENISON        CLOUDY    39  39 100 E8        29.44F
ESTHERVILLE    FOG       33  33 100 SE6       29.50F VSB 1/2 WCI  28
LE MARS        CLOUDY    39  39 100 SE7       29.45F
ORANGE CITY    FOG       37  37 100 E5        29.45F VSB 1
SHELDON        CLOUDY    36  36 100 SE5       29.45F FOG
SIOUX CITY     LGT RAIN  40  39  97 SE7       29.44F
SPENCER        CLOUDY    36  36 100 SE5       29.48F FOG
STORM LAKE     CLOUDY    36  36 100 SE9       29.47F
$$

ABBREVIATIONS USED IN REMARKS
   TC - TEMPERATURE IN CELSIUS
  WCI - WIND CHILL INDEX
   HX - HEAT INDEX
  VSB - VISIBILITY





USA.gov is the U.S. government's official web portal to all federal, state and local government web resources and services.